Wind_Speed
13 13 13 14 14 15 16 17 19 22 25 26 27 28 28 24 20 23 23 12 12 11 8 6 6 8 5 7 3 7 10 12 8 7 13 4 6 2 4 2 2 4 2 5 5 9 7
12 12 12 13 13 14 16 17 20 22 25 26 27 30 30 22 24 26 23 9 12 11 9 8 7 5 3 6 3 7 9 8 11 9 9 8 3 2 4 3 3 1 3 7 5 5 3
11 11 11 12 13 14 16 18 20 22 24 26 28 30 31 23 24 27 22 7 10 9 9 8 6 7 10 2 3 8 10 7 8 8 3 5 3 3 1 3 3 2 4 3 3 5 5
10 11 12 12 13 14 16 17 19 22 24 26 28 30 32 27 21 25 21 6 7 7 8 7 6 5 3 2 4 8 10 5 5 6 5 5 4 5 4 1 6 4 5 2 0 5 4
10 10 11 12 12 14 15 17 19 21 23 26 28 30 32 31 19 24 19 4 7 5 7 5 4 5 2 3 4 8 8 5 4 4 5 3 4 4 5 4 5 7 2 1 4 4 3
8 9 9 10 11 13 14 16 19 22 23 25 29 30 32 31 18 24 15 3 6 6 3 4 6 4 4 3 5 6 5 5 3 3 4 7 6 4 4 6 1 3 3 3 4 2 5
6 7 8 9 11 12 14 16 18 21 23 25 27 30 31 31 17 24 14 3 6 5 12 4 1 2 3 7 1 3 6 2 3 7 4 4 6 2 3 1 1 1 2 4 4 2 1
6 7 8 10 12 13 14 16 18 21 23 23 25 28 31 28 10 19 25 8 3 2 4 0 2 2 3 4 4 4 7 3 4 3 2 5 1 2 1 2 2 0 2 4 4 1 1
9 10 11 11 13 15 17 18 19 22 23 22 25 26 30 24 6 14 24 10 4 2 3 3 2 2 3 4 2 5 4 1 4 3 3 3 2 0 1 1 4 3 3 2 4 2 1
12 12 11 13 14 15 17 19 20 21 22 21 23 25 29 21 3 10 5 11 2 1 4 8 6 3 3 2 3 2 3 2 3 1 1 1 2 1 1 2 3 3 4 3 3 2 3
14 13 12 14 16 16 17 20 22 21 20 18 21 24 26 16 4 4 8 7 2 1 4 5 6 3 5 4 4 6 4 3 1 3 3 2 3 3 2 2 3 6 1 4 2 3 2
15 15 15 15 16 18 18 22 22 20 19 17 21 22 22 9 4 7 10 1 2 5 2 5 3 6 5 5 6 7 5 7 0 2 3 2 3 1 2 3 2 5 2 3 3 1 1
16 17 16 17 17 18 20 21 18 18 19 19 21 22 13 7 3 10 6 1 5 6 2 5 4 5 2 4 5 6 5 7 4 5 6 6 2 3 1 4 3 8 5 3 4 3 4
17 17 17 17 17 18 19 18 18 18 20 20 20 16 7 5 9 12 1 4 6 2 1 1 3 3 4 6 3 7 2 4 3 4 2 4 6 3 3 1 2 3 2 3 5 3 5
17 17 17 16 15 16 17 16 15 17 19 18 17 8 3 9 12 9 4 5 3 2 2 5 4 5 4 4 4 6 3 0 1 2 3 4 5 3 0 1 3 2 1 2 2 2 2
16 15 13 12 13 13 12 12 13 15 14 16 14 7 3 14 12 3 5 2 0 2 3 2 3 3 4 5 6 6 3 2 1 0 2 2 5 2 4 1 1 2 2 1 2 4 5
13 12 11 12 12 10 9 11 13 14 13 12 6 3 7 17 5 5 4 0 1 1 2 3 1 2 2 3 1 3 3 2 1 0 1 2 2 5 3 3 3 1 1 1 1 2 3
12 10 9 9 7 7 7 9 12 12 12 7 3 3 9 12 4 2 2 1 1 1 2 2 2 1 1 2 2 2 2 2 2 0 3 1 3 4 9 2 2 2 3 4 3 5 3
12 10 9 8 7 5 5 5 10 10 10 5 2 2 6 6 3 2 4 2 0 1 1 1 1 1 0 2 4 1 3 2 3 2 1 2 1 4 8 3 2 3 4 4 2 2 7
13 11 10 8 7 5 4 4 5 8 8 4 2 3 4 5 1 3 2 2 3 2 1 1 0 1 1 1 2 3 3 2 2 3 4 3 3 7 7 6 1 7 7 6 7 4 7
12 11 10 8 7 4 3 3 4 4 5 4 4 1 1 3 3 2 2 2 2 3 1 1 1 2 3 2 3 3 3 5 3 6 1 1 5 5 10 9 7 16 19 11 12 18 10
13 12 10 9 8 6 5 4 3 2 3 4 2 2 2 0 2 1 2 2 2 3 2 1 3 1 5 4 7 10 4 2 6 1 3 0 4 2 8 12 9 12 17 13 15 16 15
13 12 11 10 9 8 9 7 5 3 3 2 3 3 3 1 1 1 3 2 2 0 2 3 3 3 5 9 7 9 6 7 8 5 3 3 2 3 5 3 7 9 12 9 4 5 6
13 11 11 10 9 9 9 10 8 8 8 3 2 3 2 3 2 4 2 4 4 4 4 3 2 4 4 0 5 5 6 7 6 7 6 3 2 2 5 5 2 4 1 3 6 8 8
14 13 12 12 11 10 9 11 13 11 11 12 4 2 3 3 4 3 6 5 3 5 4 5 5 4 3 3 3 5 4 3 1 2 3 7 5 3 3 3 9 6 2 4 5 5 6
13 13 13 12 12 11 10 11 13 13 13 15 14 9 1 2 7 7 4 5 4 3 4 5 1 1 1 2 1 3 3 1 4 2 3 3 4 3 0 4 6 2 3 2 2 5 6
13 11 11 11 10 10 10 11 13 15 15 16 10 14 5 2 4 5 5 5 4 1 3 2 3 2 0 2 3 4 4 1 3 4 4 2 2 11 10 6 8 1 4 2 2 5 2
12 10 10 10 10 9 10 11 13 14 17 15 9 15 10 3 3 9 6 5 2 3 4 3 1 1 1 3 3 4 4 4 2 4 5 7 6 5 4 6 10 7 3 5 1 2 2
15 13 13 13 14 14 12 10 13 16 14 14 7 13 15 8 3 6 14 22 15 12 3 4 2 2 4 2 2 3 4 2 5 7 1 3 8 5 10 7 1 5 1 2 0 2 2
Wind_Direction
73 69 64 60 56 51 47 42 37 32 28 24 18 14 10 9 10 5 360 6 18 12 22 54 105 120 105 49 38 353 355 5 10 18 37 41 44 67 73 62 43 70 63 56 98 89 82
73 69 64 59 54 49 45 41 35 31 28 23 18 15 12 12 8 4 3 15 21 31 51 78 94 92 70 75 356 357 356 9 24 37 39 40 64 61 95 68 78 280 103 150 145 118 87
74 67 63 59 55 49 43 38 31 26 22 20 17 14 13 11 10 3 4 28 33 48 70 75 65 74 63 115 20 10 9 26 24 34 66 51 61 72 125 93 319 93 91 140 165 181 149
73 68 62 58 54 48 40 32 26 22 18 15 14 11 9 10 9 3 1 30 40 59 68 64 58 63 87 10 12 14 13 22 30 39 58 39 54 98 51 135 24 46 45 21 333 151 359
72 66 60 52 44 37 31 24 20 16 14 12 10 7 5 4 6 1 358 50 44 62 63 59 60 79 33 345 8 3 11 358 359 29 43 23 56 70 32 52 20 16 270 289 315 2 134
63 55 46 38 32 25 19 14 11 9 7 5 4 5 2 1 9 3 3 91 76 53 36 55 58 50 11 293 312 338 342 357 23 1 21 40 43 53 31 47 306 287 340 309 259 304 44
36 29 21 16 12 9 7 4 3 0 360 359 359 1 3 359 11 11 20 114 21 354 37 84 153 138 301 323 319 9 347 43 34 52 35 9 66 350 283 192 205 283 239 259 261 179 122
359 356 355 354 351 350 350 350 351 351 351 354 356 358 2 359 15 17 41 65 43 307 68 228 259 283 283 336 5 346 3 65 55 51 353 24 103 245 230 49 19 71 266 283 287 102 258
331 328 332 342 345 343 339 341 343 344 347 349 354 355 359 357 19 20 48 50 10 355 90 355 6 350 326 7 345 314 28 59 68 45 27 144 232 269 175 352 356 279 204 241 229 300 143
317 318 316 326 327 328 333 335 334 338 340 345 349 352 355 359 30 7 49 7 20 61 78 327 352 7 355 23 357 341 29 65 28 74 74 245 330 351 334 281 143 297 227 245 265 57 250
303 307 308 313 317 321 323 320 322 328 335 344 345 347 352 7 349 45 330 338 119 86 52 311 314 317 341 62 326 356 8 22 61 327 82 306 346 348 326 278 180 243 303 257 248 204 20
297 309 308 304 303 311 319 318 318 326 330 337 339 338 344 357 31 357 344 72 137 46 274 336 325 353 26 15 349 322 17 38 43 73 11 292 290 240 271 303 227 330 351 32 39 91 323
282 297 306 304 305 306 312 317 324 327 327 331 332 335 339 355 1 343 352 83 40 95 350 320 329 8 330 327 359 32 23 11 33 21 9 335 322 306 339 330 33 30 32 338 353 1 237
283 287 296 301 303 305 308 314 322 322 324 328 331 338 345 36 350 341 41 52 71 238 274 9 344 324 30 9 18 354 47 23 17 48 52 27 339 360 357 30 307 8 91 125 301 301 291
282 284 289 295 300 303 308 318 323 327 329 336 340 354 39 357 344 341 68 51 176 219 314 350 337 47 335 11 11 15 26 121 258 45 39 17 281 308 117 27 109 338 28 195 246 251 307
277 281 286 291 293 301 312 326 331 333 338 343 343 340 2 346 337 5 66 134 60 9 358 34 17 33 343 328 17 28 337 304 359 112 138 214 296 266 291 347 89 176 192 351 11 317 300
268 273 280 286 295 308 321 332 334 337 342 341 347 38 355 342 2 50 93 176 344 53 22 31 338 327 352 325 330 302 287 304 306 279 111 145 142 285 334 196 193 338 296 120 168 175 258
259 261 272 287 298 311 328 336 343 340 348 355 14 21 346 354 47 43 88 279 295 20 36 57 108 184 225 309 291 294 292 259 320 353 336 257 165 274 243 246 278 204 230 158 132 286 254
253 253 256 268 282 298 313 337 347 356 13 1 60 282 344 358 86 11 317 334 186 356 47 30 42 202 27 303 326 227 326 320 332 340 355 188 280 318 329 7 19 226 212 200 99 113 202
248 250 250 254 265 264 291 320 340 356 12 21 76 18 334 46 43 112 22 337 321 354 29 62 318 74 39 297 225 280 287 269 296 230 207 186 213 199 232 236 184 256 243 211 199 212 247
247 246 246 248 252 276 234 288 313 346 5 15 26 69 175 338 1 47 16 335 321 322 56 70 336 226 184 276 299 255 242 301 302 344 116 175 247 211 263 267 257 264 263 246 223 248 243
242 247 249 248 245 235 218 230 238 308 13 54 82 85 22 58 331 15 344 231 223 288 208 260 215 226 181 210 216 281 256 182 246 348 187 179 275 231 277 249 266 271 265 249 242 251 250
237 243 247 246 242 233 221 216 210 234 197 93 134 122 105 335 24 79 239 224 263 247 259 209 213 285 249 247 251 257 229 226 237 198 197 245 269 323 269 341 303 279 268 214 200 189 183
238 244 245 245 242 233 227 220 218 221 213 193 168 126 106 275 188 212 236 204 236 232 256 278 230 208 248 95 288 271 246 245 235 236 213 225 199 257 283 336 287 261 192 180 226 254 225
221 229 242 253 254 245 231 224 219 227 237 221 219 177 156 246 204 253 249 239 275 258 248 242 242 221 138 42 323 325 303 326 145 62 206 209 208 261 263 240 290 271 183 165 180 282 201
235 246 253 256 258 254 239 232 223 222 229 229 234 227 189 198 212 208 180 211 245 240 299 241 275 302 78 129 140 251 270 259 306 310 61 117 219 200 215 256 257 279 177 185 158 282 168
233 242 254 258 263 256 245 238 232 218 222 237 231 226 202 232 225 155 198 194 179 202 247 282 187 146 34 167 205 222 244 179 248 210 179 124 152 219 233 263 282 289 161 165 167 253 154
232 241 252 261 270 265 257 244 239 235 214 224 240 245 210 220 215 197 217 157 189 199 218 150 52 236 104 187 206 230 222 224 281 213 189 188 186 199 200 223 266 149 89 198 190 56 107
238 248 258 265 269 272 263 262 250 235 220 215 231 240 256 239 284 251 236 249 245 241 162 205 283 193 161 179 204 244 219 205 223 276 67 242 203 194 196 221 108 210 354 12 34 141 127
Height
866 865 864 863 862 861 859 857 855 852 849 846 842 838 834 829 825 821 817 813 811 809 808 808 808 808 810 816 822 819 816 814 811 809 809 810 814 817 822 822 822 824 826 828 830 833 839
868 867 866 865 864 862 860 858 856 854 850 847 843 839 834 829 825 821 816 814 812 811 810 810 810 811 811 825 821 820 817 815 812 811 813 813 817 817 821 824 826 825 827 831 831 834 837
870 869 868 867 865 863 862 860 858 855 852 848 844 839 834 829 825 820 816 814 814 812 812 812 812 813 815 825 822 820 817 816 815 814 814 815 816 816 821 824 826 826 830 831 832 835 842
872 871 870 869 867 865 864 862 859 856 852 849 845 840 835 830 826 821 817 815 815 814 813 813 813 814 824 822 821 820 819 817 816 816 816 817 816 819 823 826 831 834 839 842 832 834 839
874 873 872 871 869 867 865 863 860 857 854 850 845 841 836 831 827 822 817 816 816 815 814 813 814 815 826 823 821 821 820 819 818 818 818 818 819 828 830 838 847 851 848 842 837 837 836
876 875 873 872 870 868 866 864 861 857 854 850 846 842 837 832 827 822 817 816 816 815 815 815 816 821 823 826 822 821 820 819 819 819 821 823 832 837 844 848 852 845 846 844 846 837 842
877 876 874 873 871 869 866 864 862 859 855 851 847 842 838 832 828 824 816 817 820 821 819 828 828 828 826 824 822 821 820 819 820 824 833 834 843 844 838 839 841 844 847 847 840 836 839
878 876 875 873 871 869 867 865 862 858 855 852 847 843 838 833 830 827 821 825 835 836 832 828 828 827 826 826 825 822 821 823 825 834 831 840 840 833 833 834 837 840 843 844 838 839 839
878 877 875 873 871 870 867 864 861 858 855 851 847 843 839 834 831 829 829 835 836 836 835 830 828 828 828 828 828 826 823 826 829 832 836 841 833 831 833 836 839 839 840 837 838 836 846
877 876 875 873 871 869 867 864 861 858 855 851 847 843 838 834 834 832 834 836 835 837 848 842 833 830 828 828 830 826 826 828 830 834 835 836 832 833 835 835 839 840 833 832 834 839 847
877 875 874 873 871 869 866 864 860 857 854 851 848 844 840 836 836 836 839 835 835 837 873 840 836 829 828 832 833 829 828 826 834 835 838 835 836 835 835 834 836 838 833 836 834 840 841
875 874 872 871 869 867 865 863 859 856 853 851 848 844 841 838 838 839 836 835 836 851 876 845 837 841 835 835 835 832 832 831 832 835 838 838 837 837 835 834 835 836 835 839 847 846 845
873 872 870 868 867 865 863 861 857 855 852 849 847 844 840 839 839 837 835 837 850 864 846 850 849 846 847 844 839 842 843 849 851 851 855 847 838 837 835 837 836 843 848 856 852 855 840
870 870 868 866 865 863 861 859 856 853 850 847 844 842 840 839 838 836 835 840 854 850 849 848 849 848 847 850 846 848 846 855 849 853 864 862 855 839 837 839 842 845 850 867 849 851 846
867 867 866 864 863 862 860 858 855 852 849 846 843 841 840 840 838 836 838 861 856 854 851 853 850 853 853 850 852 850 853 855 852 851 854 861 852 841 838 838 841 842 849 848 852 849 859
864 864 864 862 861 860 858 857 855 852 848 846 843 842 841 840 837 836 848 858 856 854 853 853 856 855 857 858 857 860 855 850 849 849 851 852 861 842 840 839 841 840 844 849 857 844 845
861 862 862 861 860 859 857 857 855 853 849 847 844 845 843 840 837 842 860 860 855 854 854 856 858 858 860 860 858 859 853 850 849 849 850 852 860 848 844 841 839 845 848 848 853 854 849
859 859 859 859 859 858 857 857 856 853 851 848 847 851 843 839 849 864 861 855 854 853 853 854 856 858 858 858 859 857 856 852 851 850 852 854 868 866 846 838 839 838 839 845 854 858 858
857 857 857 857 857 857 857 857 856 853 851 851 855 855 844 841 859 864 859 855 854 854 854 855 857 858 859 860 862 859 857 852 852 851 852 854 865 871 846 841 839 839 837 837 844 850 857
856 856 855 855 856 856 857 857 856 854 853 852 856 857 853 852 864 860 860 858 857 856 856 856 858 858 859 860 858 859 857 851 852 851 850 852 863 856 851 836 840 843 838 837 838 856 837
855 855 854 853 853 855 856 856 857 855 854 855 859 866 868 865 863 863 862 862 860 857 857 857 858 858 857 860 861 860 857 856 851 853 854 858 863 865 849 848 846 836 830 834 840 825 839
852 853 853 853 852 853 854 855 856 855 856 857 862 864 870 871 870 864 864 862 861 858 858 858 859 856 857 860 859 854 855 857 856 855 855 861 858 858 853 842 842 836 823 826 825 822 821
849 850 851 851 851 851 853 854 854 855 857 857 860 862 863 869 872 870 867 861 861 860 855 854 857 858 858 855 852 849 852 852 847 850 854 857 856 851 845 849 846 831 808 811 812 814 812
846 847 849 850 850 849 851 852 854 854 856 858 859 860 863 867 872 870 862 863 861 862 861 857 856 857 851 851 850 849 850 850 853 853 852 853 857 855 848 850 846 797 806 806 810 808 809
840 843 846 848 848 849 847 849 852 854 855 857 858 860 862 862 861 862 863 863 860 861 862 857 853 852 850 852 852 850 841 838 845 855 858 857 853 855 854 854 822 798 813 813 813 798 803
836 840 842 843 845 846 846 846 849 852 854 853 855 859 861 861 856 851 857 859 858 859 860 854 852 852 852 854 855 850 838 833 837 845 856 859 859 861 866 849 827 796 816 816 815 810 807
832 835 838 840 840 842 843 844 845 847 850 853 851 852 857 858 851 850 852 852 854 855 853 850 851 853 852 856 857 851 846 845 839 841 852 858 861 857 848 839 820 808 818 818 804 792 809
828 830 833 836 837 838 840 842 843 845 844 847 849 851 851 850 843 844 845 846 849 849 846 848 853 853 856 859 853 846 848 846 847 838 839 833 844 846 843 836 822 813 819 809 803 813 813
823 826 829 832 833 835 838 838 842 843 841 843 846 847 848 849 842 839 837 837 838 837 843 847 841 843 842 848 851 848 842 846 837 816 830 827 811 815 819 802 808 807 808 813 813 812 815